Aérodrome :
LOGIN :

S'inscrire | Disclaimer

   EN    FR    IT 

 










Légende :    VFR   VFR Marginal   IFR   IFR Intensif   IFR Très Intensif
Visi : 
Plafond : 
>= 8 km
>= 3000ft
5 à 8 km
1000 à 3000 ft
1500m à 5 km
500 à 1000 ft
800 à 1500m
200 à 500 ft
< 800m
< 200 ft
Symboles :   Orages  Brouillard  Fortes neiges  Fortes précipitations  Vent > 20 kt
SIGMETs :   Divers  Orages  Givrage  Turbulence  Onde Orograph.  Cendres Volcan.






- Altitude de l'aérodrome : 1017 ft


LFSL - Brive Souillac

DERNIER METAR :
  • 202130Z AUTO 17007KT 140V210 CAVOK 11/05 Q1002

METARs EXPIRÉS :
  • 202100Z AUTO 17008KT 140V200 CAVOK 11/05 Q1002 NOSIG
  • 202030Z AUTO 18008KT 150V210 CAVOK 11/05 Q1002 NOSIG
  • 202000Z AUTO 16010KT 130V190 CAVOK 11/05 Q1002 TEMPO 15015G25KT
  • 201930Z AUTO 16009KT 120V190 CAVOK 11/05 Q1002 TEMPO 15015G25KT
  • 201900Z AUTO 16008KT 120V190 CAVOK 11/05 Q1002 TEMPO 15015G25KT

TAF TAF LFSL
Valide du 20 à 18h jusqu'au 21 à 03h UTC


201700Z 2018/2103 15010KT CAVOK
PROB30
TEMPO 2018/2021 15015G25KT



MET'MAP, la Météo Aéronautique d'un coup d'oeil ! - Copyright ORBIFLY Décembre 2007 - Disclaimer

ORBIFLY MET'MAP TEAM :

Programmation & Développement : Alexandra Zaïnal
Sur une idée originale de : Baudouin d'Aumeries
Assistance à la programmation : Marc-Olivier Méhu
Soutien technique & logistique : Manuel Goepfert

Contact : metmap@orbifly.com




SOURCES & CREDITS :

   NOAA